QTR2394 EHAM-OTHH

Flight info

Callsign QTR2394
Flight time N/A
Altitude 35000
Route EDUPO Z739 MISGO DCT DOJOH DCT DODEN DCT NEGIX DCT DINKU M867 XERUM DCT BAVAX DCT RADIZ DCT VRANA DCT DIMIS UL604 SALUN N705 MMA/N0486F370 P751 DASUM Y234 FYM M872 BDB Y214 RAPMA/N0519F290 Y214 ASPUS Y432 LADBO T142 LAEEB
Aircraft B77W/H-SDE1E2E3FGHIJ2J3J4J5M1RWXY/LB1D1

Departure

Time N/A
Airport Amsterdam Airport Schiphol (EHAM)

Arrival

Time 2026-05-04 21:39
Airport Hamad International Airport (OTHH)
Time Latitude Longitude Altitude Speed Heading
2026-05-04 21:26 24.99131 51.21194 12261 ft 366 kts 335°
2026-05-04 21:26 25.01433 51.20035 12102 ft 364 kts 334°
2026-05-04 21:26 25.03743 51.18865 11950 ft 367 kts 334°
2026-05-04 21:26 25.06069 51.17683 11793 ft 368 kts 334°
2026-05-04 21:27 25.08392 51.16502 11627 ft 367 kts 334°
2026-05-04 21:27 25.10703 51.15325 11471 ft 366 kts 334°
2026-05-04 21:27 25.13008 51.14152 11305 ft 364 kts 334°
2026-05-04 21:27 25.15306 51.12982 11159 ft 363 kts 334°
2026-05-04 21:28 25.17619 51.11952 10996 ft 354 kts 345°
2026-05-04 21:28 25.20038 51.11788 10859 ft 346 kts
2026-05-04 21:28 25.22313 51.12514 10701 ft 338 kts 22°
2026-05-04 21:28 25.24244 51.13927 10549 ft 326 kts 39°
2026-05-04 21:29 25.25640 51.15788 10386 ft 305 kts 54°
2026-05-04 21:29 25.26580 51.17824 10281 ft 294 kts 65°
2026-05-04 21:29 25.27045 51.20022 10154 ft 298 kts 84°
2026-05-04 21:29 25.27241 51.22250 9837 ft 283 kts 67°
2026-05-04 21:30 25.28171 51.24068 9274 ft 267 kts 48°
2026-05-04 21:30 25.29294 51.25697 8543 ft 266 kts 48°
2026-05-04 21:30 25.30421 51.27370 8035 ft 274 kts 49°
2026-05-04 21:30 25.31487 51.29007 7789 ft 272 kts 50°
2026-05-04 21:31 25.33500 51.32211 7308 ft 245 kts 51°
2026-05-04 21:31 25.34435 51.33723 6903 ft 235 kts 51°
2026-05-04 21:31 25.35346 51.35206 6375 ft 232 kts 51°
2026-05-04 21:32 25.36246 51.36675 5807 ft 230 kts 51°
2026-05-04 21:32 25.37145 51.38148 5299 ft 234 kts 51°
2026-05-04 21:32 25.38044 51.39625 5083 ft 229 kts 51°
2026-05-04 21:32 25.38925 51.41078 4844 ft 227 kts 51°
2026-05-04 21:33 25.39802 51.42523 4585 ft 225 kts 51°
2026-05-04 21:33 25.40657 51.43936 4413 ft 218 kts 51°
2026-05-04 21:33 25.41494 51.45320 4184 ft 215 kts 51°
2026-05-04 21:33 25.42318 51.46682 3928 ft 212 kts 51°
2026-05-04 21:34 25.43131 51.48027 3704 ft 208 kts 51°
2026-05-04 21:34 25.43925 51.49341 3521 ft 202 kts 51°
2026-05-04 21:34 25.44695 51.50624 3291 ft 198 kts 54°
2026-05-04 21:34 25.45052 51.52112 3112 ft 210 kts 88°
2026-05-04 21:35 25.44648 51.53661 2950 ft 211 kts 114°
2026-05-04 21:35 25.43636 51.54733 2756 ft 204 kts 154°
2026-05-04 21:35 25.42291 51.55301 2581 ft 214 kts 159°
2026-05-04 21:35 25.40901 51.55894 2272 ft 213 kts 158°
2026-05-04 21:36 25.39536 51.56495 2021 ft 208 kts 157°
2026-05-04 21:36 25.38213 51.57081 1738 ft 201 kts 157°
2026-05-04 21:36 25.36952 51.57639 1479 ft 188 kts 157°
2026-05-04 21:36 25.35795 51.58152 1263 ft 168 kts 158°
2026-05-04 21:37 25.34735 51.58622 1085 ft 165 kts 158°
2026-05-04 21:37 25.33672 51.59091 915 ft 164 kts 158°
2026-05-04 21:37 25.32629 51.59554 678 ft 159 kts 158°
2026-05-04 21:37 25.31634 51.60027 426 ft 153 kts 158°
2026-05-04 21:38 25.30652 51.60452 273 ft 153 kts 160°
2026-05-04 21:38 25.29656 51.60882 84 ft 154 kts 160°
2026-05-04 21:38 25.28701 51.61303 16 ft 137 kts 158°
2026-05-04 21:38 25.27935 51.61645 14 ft 101 kts 157°
2026-05-04 21:39 25.27396 51.61880 14 ft 66 kts 158°
2026-05-04 21:39 25.27075 51.62019 11 ft 39 kts 159°
2026-05-04 21:39 25.26974 51.62060 11 ft 22 kts 169°
2026-05-04 21:39 25.26819 51.62062 11 ft 22 kts 182°
2026-05-04 21:40 25.26665 51.62046 12 ft 22 kts 188°
2026-05-04 21:40 25.26589 51.62021 13 ft 10 kts 216°
2026-05-04 21:40 25.26566 51.61951 13 ft 10 kts 285°
2026-05-04 21:40 25.26624 51.61903 14 ft 11 kts 335°
2026-05-04 21:41 25.26694 51.61868 14 ft 11 kts 335°
2026-05-04 21:41 25.26770 51.61834 13 ft 12 kts 340°
2026-05-04 21:41 25.26849 51.61804 13 ft 12 kts 340°
2026-05-04 21:41 25.26928 51.61770 14 ft 12 kts 338°
2026-05-04 21:42 25.26974 51.61705 14 ft 12 kts 270°
2026-05-04 21:42 25.26954 51.61613 14 ft 12 kts 249°
2026-05-04 21:42 25.26974 51.61524 15 ft 13 kts 289°
2026-05-04 21:42 25.26943 51.61441 16 ft 13 kts 217°
2026-05-04 21:43 25.26862 51.61397 17 ft 13 kts 203°
2026-05-04 21:43 25.26813 51.61375 17 ft 3 kts 202°
2026-05-04 21:43 25.26797 51.61362 17 ft 3 kts 230°
2026-05-04 21:43 25.26793 51.61339 18 ft 3 kts 271°
2026-05-04 21:44 25.26797 51.61316 18 ft 3 kts 283°
2026-05-04 21:44 25.26802 51.61292 18 ft 3 kts 288°
2026-05-04 21:44 25.26811 51.61269 19 ft 0 kts 292°